Bangkok (Don Mueang), Thailand

6:35 AM ICT on July 26, 2016 (GMT +0700)
Bangkok International

Weather History for VTBD - April, 2014

Change the Weather History Date:

Friday, April 18, 2014

  Actual Average Record
Temperature  
Mean Temperature 88 °F -  
Max Temperature 96 °F 92 °F 102 °F (2001)
Min Temperature 80 °F 78 °F 75 °F (1999)
Cooling Degree Days 23    
Growing Degree Days 38 (Base 50)    
Moisture  
Dew Point 76 °F    
Average Humidity 68    
Maximum Humidity 94    
Minimum Humidity 36    
Precipitation  
Precipitation 0.00 in 0.16 in - ()
Sea Level Pressure  
Sea Level Pressure 29.79 in    
Wind  
Wind Speed 6 mph ()    
Max Wind Speed 15 mph    
Max Gust Speed -    
Visibility 6.1 miles    
Events      
Averages and records for this station are not official NWS values.
T = Trace of Precipitation, MM = Missing Value Source: Averaged Metar Reports

Daily Weather History Graph

Daily Weather History Graph

Search for Another Location

Airport or City:

Trip Planner

Search our weather history database for the weather conditions in past years. The results will help you decide how hot, cold, wet, or windy it might be!

Date:

Astronomy

Apr. 18, 2014 Rise Set
Actual Time 6:02 AM ICT 6:31 PM ICT
Civil Twilight 5:41 AM ICT 6:53 PM ICT
Nautical Twilight 5:15 AM ICT 7:18 PM ICT
Astronomical Twilight 4:50 AM ICT 7:44 PM ICT
Moon 9:24 PM ICT (4/18) 8:16 AM ICT (4/18)
Length of Visible Light 13h 12m
Length of Day
12h 28m
Waning Gibbous, 90% of the Moon is Illuminated
Apr 18
Waning Gibbous
Apr 22
Last Quarter
Apr 29
New
May 7
First Quarter
May 15
Full

Hourly Weather History & Observations

Time (ICT) Temp. Heat Index Dew Point Humidity Pressure Visibility Wind Dir Wind Speed Gust Speed Precip Events Conditions
12:00 AM 84.2 °F 96.1 °F 78.8 °F 84% 29.80 in 6.2 mi South 5.8 mph - N/A   Scattered Clouds
12:30 AM 84.2 °F 96.1 °F 78.8 °F 84% 29.80 in 6.2 mi SSW 8.1 mph - N/A   Scattered Clouds
1:00 AM 85 °F - 78 °F 74% 29.80 in 6 mi South 6.9 mph - -   Scattered Clouds
1:00 AM 84.2 °F 96.1 °F 78.8 °F 84% 29.77 in 6.2 mi South 6.9 mph - N/A   Scattered Clouds
1:30 AM 84.2 °F 96.1 °F 78.8 °F 84% 29.77 in 6.2 mi South 5.8 mph - N/A   Scattered Clouds
2:00 AM 84.2 °F 96.1 °F 78.8 °F 84% 29.77 in 6.2 mi South 6.9 mph - N/A   Scattered Clouds
2:30 AM 84.2 °F 96.1 °F 78.8 °F 84% 29.77 in 6.2 mi South 6.9 mph - N/A   Scattered Clouds
3:00 AM 84.2 °F 96.1 °F 78.8 °F 84% 29.74 in 6.2 mi South 6.9 mph - N/A   Scattered Clouds
3:30 AM 84.2 °F 96.1 °F 78.8 °F 84% 29.74 in 6.2 mi South 3.5 mph - N/A   Scattered Clouds
4:00 AM 83 °F - 78 °F 82% 29.83 in 6 mi Calm Calm - -   Scattered Clouds
4:00 AM 84.2 °F 96.1 °F 78.8 °F 84% 29.74 in 6.2 mi Calm Calm - N/A   Scattered Clouds
4:30 AM 82.4 °F 92.4 °F 78.8 °F 89% 29.77 in 6.2 mi ESE 3.5 mph - N/A   Scattered Clouds
5:00 AM 82.4 °F 92.4 °F 78.8 °F 89% 29.77 in 6.2 mi ESE 3.5 mph - N/A   Scattered Clouds
5:30 AM 80.6 °F 88.1 °F 78.8 °F 94% 29.77 in 6.2 mi ESE 5.8 mph - N/A   Scattered Clouds
6:00 AM 80.6 °F 88.1 °F 78.8 °F 94% 29.77 in 6.2 mi SE 5.8 mph - N/A   Scattered Clouds
6:30 AM 80.6 °F 88.1 °F 78.8 °F 94% 29.80 in 5.0 mi East 3.5 mph - N/A   Scattered Clouds
7:00 AM 82 °F - 78 °F 85% 29.85 in 5 mi ESE 3.5 mph - -   Mist
7:00 AM 82.4 °F 92.4 °F 78.8 °F 89% 29.80 in 5.0 mi ESE 3.5 mph - N/A   Scattered Clouds
7:30 AM 82.4 °F 92.4 °F 78.8 °F 89% 29.80 in 5.0 mi SE 4.6 mph - N/A   Scattered Clouds
8:00 AM 84.2 °F 96.1 °F 78.8 °F 84% 29.83 in 5.6 mi East 4.6 mph - N/A   Scattered Clouds
8:30 AM 87.8 °F 104.9 °F 80.6 °F 79% 29.83 in 5.6 mi East 3.5 mph - N/A   Scattered Clouds
9:00 AM 87.8 °F 99.7 °F 77.0 °F 70% 29.86 in 6.2 mi SSW 8.1 mph - N/A   Scattered Clouds
9:30 AM 89.6 °F 102.2 °F 77.0 °F 66% 29.86 in 6.2 mi South 9.2 mph - N/A   Mostly Cloudy
10:00 AM 92 °F - 75 °F 50% 29.88 in 6 mi South 9.2 mph - -   Scattered Clouds
10:00 AM 91.4 °F 102.5 °F 75.2 °F 59% 29.86 in 6.2 mi South 9.2 mph - N/A   Mostly Cloudy
10:30 AM 93.2 °F 105.0 °F 75.2 °F 56% 29.86 in 6.2 mi South 6.9 mph - N/A   Mostly Cloudy
11:00 AM 93.2 °F 105.0 °F 75.2 °F 56% 29.83 in 6.2 mi SSW 6.9 mph - N/A   Mostly Cloudy
11:30 AM 95.0 °F 109.7 °F 77.0 °F 56% 29.83 in 6.2 mi SSW 9.2 mph - N/A   Mostly Cloudy
12:00 PM 93.2 °F 105.0 °F 75.2 °F 56% 29.83 in 6.2 mi South 8.1 mph - N/A   Mostly Cloudy
12:30 PM 93.2 °F 107.2 °F 77.0 °F 59% 29.83 in 6.2 mi South 8.1 mph - N/A   Mostly Cloudy
1:00 PM 96 °F - 76 °F 43% 29.81 in 6 mi South 9.2 mph - -   Scattered Clouds
1:00 PM 95.0 °F 109.7 °F 77.0 °F 56% 29.80 in 6.2 mi South 9.2 mph - N/A   Mostly Cloudy
1:30 PM 95.0 °F 107.4 °F 75.2 °F 53% 29.77 in 6.2 mi SSW 8.1 mph - N/A   Mostly Cloudy
2:00 PM 95.0 °F 107.4 °F 75.2 °F 53% 29.77 in 6.2 mi SSW 8.1 mph - N/A   Mostly Cloudy
2:30 PM 95.0 °F 107.4 °F 75.2 °F 53% 29.74 in 6.2 mi SSW 9.2 mph - N/A   Mostly Cloudy
3:00 PM 95.0 °F 107.4 °F 75.2 °F 53% 29.74 in 6.2 mi SSW 10.4 mph - N/A   Mostly Cloudy
3:30 PM 96.8 °F 107.3 °F 73.4 °F 47% 29.71 in 6.2 mi South 9.2 mph - N/A   Mostly Cloudy
4:00 PM 96 °F - 72 °F 36% 29.72 in 6 mi SSW 9.2 mph - -   Scattered Clouds
4:00 PM 96.8 °F 107.3 °F 73.4 °F 47% 29.71 in 6.2 mi SSW 9.2 mph - N/A   Mostly Cloudy
4:30 PM 95.0 °F 107.4 °F 75.2 °F 53% 29.68 in 6.2 mi SSW 10.4 mph - N/A   Mostly Cloudy
5:00 PM 95.0 °F 107.4 °F 75.2 °F 53% 29.71 in 6.2 mi South 11.5 mph - N/A   Mostly Cloudy
5:30 PM 93.2 °F 105.0 °F 75.2 °F 56% 29.74 in 6.2 mi SSE 11.5 mph - N/A   Mostly Cloudy
6:00 PM 91.4 °F 102.5 °F 75.2 °F 59% 29.74 in 6.2 mi SSE 11.5 mph - N/A   Mostly Cloudy
6:30 PM 89.6 °F 98.2 °F 73.4 °F 59% 29.74 in 6.2 mi ESE 15.0 mph - N/A   Mostly Cloudy
7:00 PM 86 °F - 69 °F 48% 29.77 in 6 mi ESE 11.5 mph - -   Scattered Clouds
7:00 PM 86.0 °F 90.4 °F 69.8 °F 58% 29.77 in 6.2 mi ESE 11.5 mph - N/A   Mostly Cloudy
7:30 PM 84.2 °F 88.4 °F 69.8 °F 62% 29.77 in 6.2 mi SE 8.1 mph - N/A   Mostly Cloudy
8:00 PM 84.2 °F 89.6 °F 71.6 °F 66% 29.77 in 6.2 mi ESE 8.1 mph - N/A   Mostly Cloudy
8:30 PM 84.2 °F 89.6 °F 71.6 °F 66% 29.80 in 6.2 mi East 8.1 mph - N/A   Mostly Cloudy
9:00 PM 84.2 °F 89.6 °F 71.6 °F 66% 29.80 in 6.2 mi ESE 5.8 mph - N/A   Mostly Cloudy
9:30 PM 84.2 °F 89.6 °F 71.6 °F 66% 29.80 in 6.2 mi ESE 6.9 mph - N/A   Mostly Cloudy
10:00 PM 83 °F - 72 °F 63% 29.83 in 6 mi East 5.8 mph - -   Scattered Clouds
10:00 PM 84.2 °F 89.6 °F 71.6 °F 66% 29.83 in 6.2 mi East 5.8 mph - N/A   Mostly Cloudy
10:30 PM 84.2 °F 90.9 °F 73.4 °F 70% 29.83 in 6.2 mi SE 5.8 mph - N/A   Mostly Cloudy
11:00 PM 82.4 °F 88.2 °F 73.4 °F 74% 29.83 in 6.2 mi ESE 4.6 mph - N/A   Mostly Cloudy
11:30 PM 82.4 °F 88.2 °F 73.4 °F 74% 29.83 in 6.2 mi ESE 3.5 mph - N/A   Mostly Cloudy